Flag for Argentina Weather past 2 weeks in Buenos Aires, Argentina

Now
68 °F

Clear.


Feels Like: 68 °F
Forecast: 66 / 81 °F
Wind: 9 mph from North

Location: Buenos Aires Airport

Current Time: Oct 22, 2014 at 5:38:00 AM

Latest Report: Oct 22, 2014 at 5:00 AM


Visibility: 10 mi

Pressure: 30.01 "Hg

Humidity: 73%

Dew point: 59 °F

Location of Buenos AiresLocation

Historic Weather in Buenos Aires — Graph

°F

Buenos Aires temperature yesterday

Maximum temperature yesterday: 79 °F (at 3:00 PM)
Minimum temperature yesterday: 66 °F (at 12:00 AM)
Average temperature yesterday: 72 °F

Past Weeks' High & Low Weather Summary

 TemperatureHumidityPressure
High82 °F (Oct 16, 6:00 PM)94% (Oct 9, 3:00 AM)30.21 "Hg (Oct 9, 3:00 AM)
Low50 °F (Oct 10, 6:00 AM)22% (Oct 19, 4:00 PM)29.56 "Hg (Oct 9, 4:00 AM)
Average68 °F67%29.95 "Hg
* Reported Oct 7 4:00 AM — Oct 22 4:00 AM, Buenos Aires, Weather by CustomWeather, © 2014

Note: Actual official high and low records may vary slightly from our data, if they occured in-between our weather recording intervals... More about our weather records

Advertising

Buenos Aires weather history for previous 24 hours

 ConditionsComfort  
Time TempWeatherWind HumidityBarometerVisibility
4:00 AM
Oct 22
68 °FClear.10 mph73%30.01 "Hg10 mi
3:00 AM72 °FClear.12 mph69%30.01 "Hg10 mi
1:00 AM72 °FClear.9 mph69%30.04 "Hg10 mi
12:00 AM73 °FClear.14 mph65%30.04 "Hg10 mi
11:00 PM
Oct 21
75 °FClear.13 mph61%30.04 "Hg10 mi
10:00 PM75 °FClear.13 mph61%30.04 "Hg10 mi
9:00 PM75 °FClear.9 mph65%30.04 "Hg10 mi
8:00 PM75 °FClear.9 mph65%30.01 "Hg10 mi
7:00 PM75 °FClear.12 mph69%30.01 "Hg10 mi
6:00 PM79 °FSunny.9 mph58%30.01 "Hg10 mi
5:00 PM79 °FSunny.8 mph54%30.01 "Hg10 mi
4:00 PM79 °FSunny.12 mph58%30.01 "Hg10 mi
3:00 PM79 °FSunny.12 mph54%30.04 "Hg10 mi
2:00 PM77 °FSunny.12 mph57%30.07 "Hg10 mi
1:00 PM75 °FSunny.14 mph57%30.09 "Hg10 mi
12:00 PM73 °FPassing clouds.14 mph53%30.09 "HgN/A
11:00 AM72 °FSunny.14 mph57%30.12 "Hg10 mi
10:00 AM70 °FSunny.12 mph57%30.12 "Hg10 mi
9:00 AM68 °FSunny.12 mph53%30.12 "Hg10 mi
8:00 AM66 °FSunny.12 mph56%30.12 "Hg10 mi
7:00 AM66 °FSunny.13 mph60%30.12 "Hg10 mi
6:00 AM66 °FSunny.16 mph60%30.09 "Hg10 mi
5:00 AM66 °FClear.14 mph64%30.07 "Hg10 mi
Weather by CustomWeather, © 2014

See weather overviewHow to use our weather pages